RH
98 98 96 95 96 94 95 97 96 95 94 90 91 93 92 94 88 87 96 79 81 79 77 75 74 75 73 76 78 78 74 72 76 78 81 76 75 76 75 72 72 73 74
97 98 96 95 98 98 97 96 96 97 96 95 94 91 86 89 92 83 93 88 79 83 78 74 75 76 74 75 76 79 80 79 78 79 80 83 83 81 76 74 73 74 76
93 93 95 96 97 98 96 96 95 97 97 92 94 93 86 83 81 82 80 82 80 80 80 75 75 76 76 77 78 80 82 83 82 81 82 85 86 86 83 82 79 79 81
86 93 93 96 97 97 98 96 98 98 98 98 96 94 88 87 89 83 75 74 84 71 77 79 77 76 76 76 79 83 83 84 84 84 84 84 85 87 86 86 85 85 84
83 90 93 93 94 97 98 94 97 98 96 95 95 93 94 96 88 85 79 79 82 84 90 79 81 80 76 74 79 81 83 86 86 86 86 86 86 86 86 88 87 86 87
88 92 96 97 97 98 98 98 96 95 97 96 94 84 90 93 88 91 89 88 93 80 93 88 79 78 82 78 78 80 80 81 86 87 88 88 88 88 87 88 87 87 88
91 96 98 98 97 98 97 94 96 96 96 96 98 94 93 92 94 95 91 94 94 89 92 92 90 79 78 84 82 79 78 78 80 84 87 87 88 89 89 89 89 88 89
93 95 97 98 98 99 96 94 96 97 97 95 95 98 96 84 89 90 93 88 92 91 91 89 92 79 85 82 82 82 86 78 77 77 78 81 87 88 90 91 91 90 90
90 89 96 97 97 98 97 87 92 95 98 95 95 94 96 94 96 80 88 92 92 98 96 94 93 91 94 94 87 84 86 86 80 79 80 80 80 82 84 89 91 92 92
81 89 93 95 96 98 97 96 88 96 99 99 92 95 94 93 98 96 85 92 95 96 96 97 95 92 91 96 90 87 89 92 89 84 80 84 82 80 81 86 89 92 92
96 95 97 95 96 98 97 97 96 96 97 97 98 96 95 97 97 98 98 97 96 96 97 97 96 94 93 95 97 94 91 92 89 85 83 84 82 83 79 84 88 91 92
98 98 96 97 95 97 97 99 98 95 97 98 98 99 98 98 97 98 99 95 97 96 96 97 97 96 98 97 88 86 89 92 93 90 91 86 82 85 81 80 83 88 89
99 96 95 95 96 94 94 95 97 97 98 97 97 98 98 99 98 99 99 99 99 96 92 91 90 96 93 97 96 88 87 89 92 91 88 88 95 93 92 83 81 84 85
96 89 86 82 87 85 87 94 97 97 95 96 95 97 98 98 99 99 99 99 97 98 96 88 95 98 99 97 96 90 94 92 90 92 95 96 95 96 95 91 85 82 86
79 84 86 87 90 92 93 93 95 96 95 96 97 97 98 98 98 99 99 99 99 100 98 93 95 92 98 99 95 95 94 94 95 93 93 97 98 98 97 96 95 90 91
90 90 91 91 92 93 94 94 96 96 96 98 95 94 95 97 97 98 99 99 100 100 98 97 96 96 95 96 95 94 92 92 92 91 93 95 95 97 97 97 97 97 95
92 92 91 91 93 96 96 95 95 95 95 95 95 95 92 93 97 96 97 98 99 100 99 98 98 95 95 96 95 97 96 97 97 93 89 90 88 88 96 97 98 97 97
94 93 92 92 96 95 95 95 94 95 96 96 96 96 95 84 94 95 97 96 97 98 100 99 97 97 98 96 98 98 88 76 82 78 84 85 86 91 95 97 97 98 98
94 94 94 95 95 95 94 94 95 95 96 96 96 97 96 96 96 96 96 97 97 98 99 100 98 98 98 97 97 97 97 97 87 84 86 90 93 94 97 98 96 98 99
92 92 93 94 94 93 93 94 93 95 96 94 96 97 97 97 97 97 97 96 98 98 98 99 99 99 99 96 98 99 98 98 97 84 89 95 97 96 97 99 98 97 99
89 89 89 89 88 88 86 93 94 96 97 96 95 97 96 88 86 92 97 98 98 98 98 98 98 99 98 98 98 98 99 98 97 98 98 97 97 97 98 99 97 97 98
84 82 85 86 77 79 84 80 84 96 95 96 97 98 94 88 92 89 88 88 93 98 97 98 98 98 96 98 98 99 99 99 99 97 98 97 98 98 98 99 95 97 99
88 91 89 91 85 91 84 82 76 94 95 95 95 96 87 80 97 98 94 90 90 91 92 99 100 98 99 96 98 98 97 99 99 98 98 98 97 97 96 98 96 97 97
90 92 94 96 94 93 86 81 78 92 94 93 94 94 96 98 95 93 97 95 95 96 95 97 98 98 98 99 99 98 97 97 96 97 98 100 98 97 96 96 98 99 99
90 91 93 93 96 96 89 82 82 93 92 93 94 96 97 98 96 96 96 96 95 96 87 93 96 96 96 96 97 98 97 97 97 98 98 98 97 97 96 97 98 98 98
93 96 95 95 92 96 82 77 84 94 94 97 96 96 91 96 96 98 96 96 96 96 98 95 94 93 94 94 94 98 100 99 99 97 98 100 98 97 96 94 97 97 97
Wind_Speed
3 2 3 3 3 3 3 3 4 4 5 5 5 5 5 5 6 3 3 13 15 18 19 18 18 18 18 17 17 17 17 17 16 16 15 14 12 11 11 11 10 9 9
3 3 2 3 3 4 3 4 4 4 5 4 5 5 6 6 6 6 5 5 15 17 19 19 17 17 19 20 19 18 18 18 17 17 15 13 15 14 14 13 12 12 11
3 2 2 3 3 2 5 4 4 4 4 4 6 5 5 6 6 7 6 5 5 17 19 20 19 18 19 20 20 20 19 19 18 18 17 15 14 15 15 15 14 13 13
5 2 2 3 4 1 1 2 2 3 4 4 4 4 4 4 6 7 6 6 4 5 11 18 20 20 20 21 21 21 20 19 19 18 18 17 17 16 16 16 15 15 15
3 3 3 3 4 2 2 2 3 3 3 3 4 4 4 4 7 5 9 8 7 7 4 11 18 20 22 22 22 22 21 20 19 19 19 19 19 18 17 16 17 16 15
5 4 3 4 4 3 3 3 4 2 4 4 4 6 5 5 5 5 7 5 4 8 6 7 6 10 21 22 23 20 21 21 21 20 20 20 20 20 19 18 17 17 16
5 5 4 4 4 4 4 4 2 4 3 2 2 3 4 5 5 4 4 4 5 7 5 7 6 5 7 21 20 14 20 21 20 20 20 21 21 21 20 19 18 18 17
5 4 4 4 5 3 4 3 4 2 2 3 2 0 4 5 4 2 2 4 5 4 6 7 5 7 6 6 9 20 25 21 18 19 20 20 20 21 21 20 20 19 19
5 6 6 5 3 3 3 4 3 4 3 3 5 3 1 3 3 3 3 2 2 3 4 3 6 6 6 6 8 10 16 15 18 21 15 18 19 20 22 21 21 20 20
1 2 4 4 2 2 4 4 4 4 3 3 2 2 3 2 1 5 1 2 2 4 5 4 4 4 5 4 8 9 10 11 12 16 16 12 18 20 21 21 21 21 20
4 5 3 1 3 3 3 4 3 3 2 2 2 1 1 1 2 3 4 3 3 4 4 4 4 3 3 5 5 6 12 14 18 19 18 11 0 13 21 22 22 22 21
3 4 4 3 3 3 4 3 3 1 1 2 2 3 2 2 2 2 3 3 4 4 4 5 5 6 5 6 8 10 12 12 13 12 8 8 6 12 15 22 22 22 22
3 5 4 4 3 5 5 5 4 4 4 2 1 1 2 2 2 3 2 3 3 3 3 4 6 5 5 6 7 13 11 11 10 11 11 9 13 14 15 19 21 22 23
3 4 5 5 6 6 5 5 3 4 5 4 4 3 2 2 1 2 2 2 4 3 2 5 3 4 3 5 9 13 9 6 9 10 11 10 11 8 10 12 16 20 21
1 3 4 5 5 5 5 5 4 4 4 4 4 4 2 2 3 3 2 3 2 3 3 2 2 2 3 4 7 4 6 7 10 8 9 8 8 7 9 12 13 13 15
3 4 4 4 5 5 5 4 4 4 5 4 3 5 4 3 4 4 3 2 2 3 4 2 3 4 4 3 6 6 6 9 8 8 10 10 8 11 11 12 12 14 14
2 3 2 3 4 5 5 5 5 5 5 5 4 5 5 4 4 4 4 3 2 2 5 3 2 2 3 5 6 4 5 5 5 9 11 11 12 10 10 10 12 13 14
4 4 4 3 5 5 5 5 5 5 5 5 5 5 5 4 5 4 3 4 3 4 3 6 2 2 4 4 5 5 5 5 4 8 11 11 11 11 13 12 12 13 13
4 5 4 5 4 4 4 4 4 5 5 5 5 5 5 5 5 3 3 4 3 3 4 4 4 2 3 2 3 3 4 4 4 9 13 14 13 13 14 14 15 14 14
2 3 3 3 3 1 2 4 5 5 5 4 5 5 5 5 5 5 4 5 4 4 3 3 3 3 3 2 2 2 4 2 4 4 6 8 5 7 11 13 15 14 13
1 1 0 0 1 0 3 5 5 5 5 5 5 5 4 9 10 6 3 4 4 3 3 3 3 3 3 3 2 2 3 3 4 4 3 2 2 2 4 10 11 14 12
4 3 4 4 4 2 5 8 7 4 5 5 5 5 4 8 9 11 11 9 4 2 3 2 2 3 5 3 2 2 2 2 3 1 3 4 2 3 4 3 8 11 8
4 4 5 5 3 2 3 7 9 4 4 5 5 4 5 6 8 7 10 10 8 7 2 4 3 2 4 2 4 3 2 2 3 4 3 4 1 3 3 4 8 11 10
3 3 5 5 2 2 3 7 8 5 5 5 5 5 5 6 6 6 5 6 6 5 5 3 2 3 3 6 5 2 2 3 4 3 1 3 3 2 4 3 4 3 8
3 3 3 5 4 5 1 5 4 4 5 5 5 5 4 5 11 7 5 6 6 6 6 8 5 5 7 9 8 1 2 1 2 3 4 3 3 3 3 3 4 8 8
3 4 5 5 7 4 3 5 4 3 5 4 5 5 7 7 8 6 3 4 5 4 6 6 5 5 7 7 10 5 3 2 2 3 4 5 4 3 4 1 3 4 5
Wind_Direction
215 199 209 218 227 221 233 255 256 243 244 246 245 241 256 252 239 233 216 238 226 223 224 223 219 218 220 223 220 221 225 222 216 218 219 213 213 212 215 224 230 227 221
195 200 214 232 251 236 206 219 233 251 250 246 259 250 243 233 231 237 240 237 233 231 227 233 230 229 224 224 225 227 221 223 223 222 223 223 214 210 213 222 228 235 238
195 199 246 259 245 261 224 229 242 242 243 246 246 245 248 248 240 237 235 239 245 236 220 224 229 231 231 228 227 226 227 224 221 224 224 222 222 220 219 216 221 231 237
189 199 230 252 270 259 212 233 266 276 247 236 252 253 247 229 240 242 236 232 212 230 224 230 228 227 232 233 230 228 225 226 224 223 224 224 225 225 224 224 223 224 232
204 194 234 261 259 235 226 230 242 220 264 264 255 250 250 239 241 237 240 227 207 225 231 238 226 226 229 232 230 227 228 227 223 221 223 225 224 226 224 221 223 225 231
206 214 230 264 254 248 236 233 236 236 239 248 285 283 265 244 230 208 232 252 228 225 197 222 249 233 229 231 232 231 233 226 225 225 223 223 227 227 225 223 223 223 224
215 227 228 239 230 246 261 220 221 234 280 221 269 295 280 246 248 239 212 224 238 236 212 210 214 225 232 233 232 234 259 237 230 227 226 227 221 225 227 225 222 221 223
212 231 229 227 235 219 235 256 226 242 261 196 216 69 330 331 324 283 220 217 237 216 226 218 225 231 229 236 223 215 230 237 235 238 238 231 227 225 222 223 223 220 222
239 226 233 248 226 193 237 243 220 213 250 278 207 180 288 254 325 335 15 323 281 240 260 238 193 229 234 224 230 224 226 232 236 235 250 244 231 227 229 221 219 220 220
129 264 277 296 303 202 232 244 232 224 194 256 306 222 237 186 237 318 336 318 338 258 235 240 248 224 248 231 232 226 228 195 205 224 225 229 228 226 227 223 222 218 218
309 303 331 305 307 255 257 245 276 225 211 265 204 305 285 233 202 212 292 305 313 250 247 231 239 270 231 222 232 221 216 213 219 223 223 204 267 246 231 224 222 220 218
27 19 60 81 49 48 36 23 353 312 239 245 253 240 227 223 228 201 245 274 242 272 237 221 220 230 230 227 226 230 230 230 228 240 224 230 231 260 252 231 224 222 221
5 24 29 28 24 26 28 21 20 22 30 19 342 274 208 226 217 199 192 253 257 267 271 226 225 228 222 228 233 237 248 255 245 237 245 229 243 249 243 233 229 225 225
61 353 5 20 25 24 14 17 28 14 14 8 5 10 315 329 252 214 222 223 293 270 255 229 249 216 213 241 242 243 246 216 235 248 237 250 245 234 242 244 234 227 220
52 30 17 16 13 23 28 17 23 20 6 360 1 3 355 1 359 330 259 218 226 292 283 298 281 282 230 224 244 239 247 229 228 244 256 246 244 234 248 245 245 227 218
13 17 12 13 8 19 19 29 27 16 32 12 13 14 2 348 350 346 335 292 231 246 275 225 241 257 277 267 250 249 253 269 257 237 242 240 245 247 241 234 239 235 217
1 2 354 7 20 37 40 46 26 27 22 3 356 355 333 330 327 332 326 326 297 249 275 297 250 273 276 274 281 263 269 260 267 235 240 253 260 253 232 234 232 230 228
345 339 355 31 83 69 53 43 24 9 9 355 342 342 323 327 321 310 306 311 290 281 260 278 273 278 242 273 265 286 268 267 255 273 266 260 262 257 250 242 238 228 227
14 25 29 92 81 58 43 24 16 356 347 339 326 316 305 313 312 309 305 295 288 287 266 259 284 269 261 264 303 279 286 267 250 258 262 262 256 246 237 237 245 232 226
33 45 51 107 139 80 18 22 6 3 349 332 314 300 298 299 289 299 294 291 288 301 288 273 284 283 262 279 254 286 313 315 309 290 264 252 262 243 236 238 242 246 239
288 293 165 190 178 322 25 9 6 3 355 349 344 347 19 36 36 27 350 322 305 295 299 293 279 283 287 320 299 298 276 296 283 251 303 309 291 254 235 232 247 238 238
283 294 287 264 243 95 18 14 21 8 2 5 355 352 2 26 8 3 352 340 319 285 275 262 276 291 286 279 288 254 273 320 317 340 10 297 235 292 287 253 224 230 219
325 334 335 309 95 94 36 10 15 14 11 358 354 348 11 5 5 352 346 349 348 357 346 276 276 269 289 280 303 294 250 233 245 287 14 283 271 281 266 262 232 235 247
311 319 330 358 3 304 2 6 10 5 4 355 355 349 0 343 355 1 341 349 346 336 347 307 289 316 312 310 258 246 283 289 297 323 21 293 333 298 322 3 22 283 273
314 302 304 309 281 276 258 8 23 357 347 346 341 356 8 347 348 10 23 2 351 1 357 25 41 4 338 351 4 11 340 343 305 345 13 347 322 312 322 340 355 16 12
293 302 300 261 255 246 157 41 30 355 340 344 333 352 359 4 3 357 28 13 7 343 346 1 7 3 8 2 11 23 8 23 353 11 3 343 334 356 336 334 354 13 1